Overview Statistics Trail Chart Weather Telemetry Raw packets
 

This is the latest recevied weather packets stored in our database for station/object 9A7DI-13. If no packets are shown the sender has not sent any weather packets the latest 10 day(s).

<< 29 30 31 32 33 34 35 >>
Time Temp. Humidity Pressure Rain* Wind** Luminosity Snow
1788228408 18.89° C 82% 1027.4 hPa - - - -
1788227808 18.89° C 80% 1027.3 hPa - - - -
1788227208 18.89° C 80% 1027.3 hPa - - - -
1788226608 18.89° C 81% 1027.2 hPa - - - -
1788226008 19.44° C 80% 1027.3 hPa - - - -
1788225408 19.44° C 79% 1027.2 hPa - - - -
1788224808 19.44° C 79% 1027.2 hPa - - - -
1788224208 20° C 78% 1027.2 hPa - - - -
1788223608 20° C 78% 1027 hPa - - - -
1788223008 20° C 77% 1027 hPa - - - -
1788222408 20.56° C 76% 1026.9 hPa - - - -
1788221808 20.56° C 77% 1026.7 hPa - - - -
1788221208 20.56° C 79% 1026.8 hPa - - - -
1788220608 20.56° C 81% 1026.8 hPa - - - -
1788220008 20.56° C 79% 1026.3 hPa - - - -
1788219408 20.56° C 83% 1025.8 hPa - - - -
1788218808 21.11° C 83% 1025.4 hPa - - - -
1788218208 21.11° C 83% 1025.2 hPa - - - -
1788217608 21.11° C 87% 1025 hPa - - - -
1788217008 21.67° C 85% 1024.8 hPa - - - -
1788216408 21.67° C 83% 1024.8 hPa - - - -
1788215808 21.67° C 88% 1024.5 hPa - - - -
1788215208 21.67° C 87% 1024.3 hPa - - - -
1788214608 21.67° C 83% 1024.6 hPa - - - -
1788214008 21.67° C 83% 1024.4 hPa - - - -

* Rain since midnight (hover to see other rain measurements)
** Current wind speed in m/s (hover to see current wind gust speed)